Location: Long Geng
(2.6167°N, 114.1333°E)
Time: 04:51:14
(UTC+00:00)

Meteor 1-26 Rocket - Pass Details

Date: 14 May 2021
Orbit: 807 x 929 km, 81.3° (Epoch: 13 June)

Event Time Altitude Azimuth Distance (km) Brightness Sun altitude
Exits shadow 12:21:32 27° 194° (SSW) 1,641 5.6 -27.7°
Maximum altitude 12:24:49 75° 274° (W) 915 4.4 -28.4°
Drops below altitude 10° 12:30:29 10° 360° (N) 2,491 6.9 -29.7°
Sets 12:32:52 0° 2° (N) 3,407 7.6 -30.3°
